| time (UTC) | temp F | wind direction | speed MPH | gust MPH | rain 1hr in | rain 24hr in | rain mn in | humidity % | barometer mb |
| 20260505172317 | 74 | 225 | 4.0 | 8.0 | 0.00 | 0.00 | 0.00 | 50 | 1013.7 |
| 20260505171317 | 74 | 158 | 6.0 | 11.0 | 0.00 | 0.00 | 0.00 | 48 | 1013.8 |
| 20260505170338 | 73 | 203 | 7.0 | 9.0 | 0.00 | 0.00 | 0.00 | 48 | 1013.9 |
| 20260505165317 | 73 | 203 | 10.0 | 16.0 | 0.00 | 0.00 | 0.00 | 46 | 1014.0 |
| 20260505164317 | 73 | 180 | 6.0 | 11.0 | 0.00 | 0.00 | 0.00 | 50 | 1014.1 |
| 20260505163317 | 73 | 180 | 3.0 | 7.0 | 0.00 | 0.00 | 0.00 | 54 | 1014.2 |
| 20260505162317 | 72 | 180 | 4.0 | 6.0 | 0.00 | 0.00 | 0.00 | 52 | 1014.3 |
| 20260505161317 | 71 | 203 | 7.0 | 9.0 | 0.00 | 0.00 | 0.00 | 52 | 1014.1 |
| 20260505160318 | 71 | 225 | 4.0 | 7.0 | 0.00 | 0.00 | 0.00 | 56 | 1013.8 |
| 20260505153317 | 70 | 270 | 5.0 | 10.0 | 0.00 | 0.00 | 0.00 | 59 | 1014.2 |
| 20260505152317 | 69 | 225 | 3.0 | 8.0 | 0.00 | 0.00 | 0.00 | 63 | 1014.4 |
| 20260505151317 | 69 | 203 | 6.0 | 11.0 | 0.00 | 0.00 | 0.00 | 63 | 1014.4 |
| 20260505150317 | 68 | 225 | 4.0 | 6.0 | 0.00 | 0.00 | 0.00 | 65 | 1014.4 |
| 20260505140317 | 65 | 225 | 2.0 | 3.0 | 0.00 | 0.00 | 0.00 | 69 | 1014.3 |
| 20260505124316 | 61 | 180 | 2.0 | 4.0 | 0.00 | 0.00 | 0.00 | 75 | 1013.9 |
| 20260505123337 | 60 | 180 | 3.0 | 4.0 | 0.00 | 0.00 | 0.00 | 75 | 1013.9 |
| 20260505122316 | 59 | 180 | 2.0 | 4.0 | 0.00 | 0.00 | 0.00 | 78 | 1013.9 |
| 20260505121316 | 58 | 0.0 | 0.0 | 0.00 | 0.00 | 0.00 | 81 | 1013.9 | |
| 20260505120320 | 57 | 0.0 | 1.0 | 0.00 | 0.00 | 0.00 | 80 | 1013.9 | |
| 20260505115316 | 56 | 0.0 | 0.0 | 0.00 | 0.00 | 0.00 | 80 | 1013.5 | |
| 20260505114316 | 56 | 0.0 | 0.0 | 0.00 | 0.00 | 0.00 | 80 | 1013.1 | |
| 20260505113316 | 56 | 0.0 | 0.0 | 0.00 | 0.00 | 0.00 | 81 | 1012.9 | |
| 20260505112316 | 56 | 0.0 | 0.0 | 0.00 | 0.00 | 0.00 | 80 | 1012.9 | |
| 20260505111316 | 56 | 0.0 | 0.0 | 0.00 | 0.00 | 0.00 | 79 | 1012.9 | |
| 20260505110316 | 56 | 0.0 | 0.0 | 0.00 | 0.00 | 0.00 | 78 | 1012.6 | |
| 20260505101318 | 56 | 0.0 | 0.0 | 0.00 | 0.00 | 0.00 | 76 | 1012.0 | |
| 20260505100338 | 56 | 0.0 | 0.0 | 0.00 | 0.00 | 0.00 | 75 | 1012.1 | |
| 20260505095318 | 57 | 0.0 | 0.0 | 0.00 | 0.00 | 0.00 | 74 | 1012.1 | |
| 20260505094318 | 57 | 0.0 | 0.0 | 0.00 | 0.00 | 0.00 | 73 | 1012.1 | |
| 20260505093338 | 58 | 0.0 | 0.0 | 0.00 | 0.00 | 0.00 | 72 | 1012.3 | |
| 20260505092318 | 58 | 0.0 | 0.0 | 0.00 | 0.00 | 0.00 | 71 | 1012.1 | |
| 20260505091337 | 58 | 0.0 | 3.0 | 0.00 | 0.00 | 0.00 | 71 | 1011.9 | |
| 20260505090319 | 59 | 0.0 | 3.0 | 0.00 | 0.00 | 0.00 | 71 | 1011.8 | |
| 20260505085318 | 59 | 0.0 | 1.0 | 0.00 | 0.00 | 0.00 | 70 | 1011.8 | |
| 20260505084317 | 58 | 158 | 1.0 | 2.0 | 0.00 | 0.00 | 0.00 | 71 | 1012.0 |
| 20260505083318 | 58 | 0.0 | 1.0 | 0.00 | 0.00 | 0.00 | 73 | 1012.2 | |
| 20260505082318 | 57 | 0.0 | 0.0 | 0.00 | 0.00 | 0.00 | 75 | 1012.0 | |
| 20260505081317 | 56 | 180 | 1.0 | 4.0 | 0.00 | 0.00 | 0.00 | 78 | 1011.8 |
| 20260505080317 | 55 | 0.0 | 0.0 | 0.00 | 0.00 | 0.00 | 80 | 1012.2 | |
| 20260505075317 | 55 | 0.0 | 0.0 | 0.00 | 0.00 | 0.00 | 80 | 1012.2 | |
| 20260505074318 | 55 | 0.0 | 0.0 | 0.00 | 0.00 | 0.00 | 80 | 1012.3 | |
| 20260505073317 | 55 | 0.0 | 0.0 | 0.00 | 0.00 | 0.00 | 80 | 1012.5 | |
| 20260505072317 | 55 | 0.0 | 0.0 | 0.00 | 0.00 | 0.00 | 80 | 1012.5 | |
| 20260505071337 | 55 | 0.0 | 0.0 | 0.00 | 0.00 | 0.00 | 79 | 1012.5 | |
| 20260505070318 | 55 | 0.0 | 0.0 | 0.00 | 0.00 | 0.00 | 79 | 1012.6 | |
| 20260505065317 | 56 | 0.0 | 0.0 | 0.00 | 0.00 | 0.00 | 77 | 1012.6 | |
| 20260505064317 | 57 | 0.0 | 0.0 | 0.00 | 0.00 | 0.00 | 76 | 1012.8 | |
| 20260505063318 | 58 | 0.0 | 0.0 | 0.00 | 0.00 | 0.00 | 74 | 1012.8 | |
| 20260505062317 | 58 | 0.0 | 0.0 | 0.00 | 0.00 | 0.00 | 72 | 1013.0 | |
| 20260505061317 | 59 | 0.0 | 0.0 | 0.00 | 0.00 | 0.00 | 71 | 1013.1 | |
| 20260505060317 | 60 | 0.0 | 0.0 | 0.00 | 0.00 | 0.00 | 69 | 1013.1 | |
| 20260505055317 | 61 | 0.0 | 0.0 | 0.00 | 0.00 | 0.00 | 68 | 1013.1 | |
| 20260505054317 | 61 | 0.0 | 0.0 | 0.00 | 0.00 | 0.00 | 67 | 1013.1 | |
| 20260505053317 | 61 | 0.0 | 2.0 | 0.00 | 0.00 | 0.00 | 66 | 1013.1 | |
| 20260505052317 | 61 | 0.0 | 0.0 | 0.00 | 0.00 | 0.00 | 66 | 1013.1 | |
| 20260505051317 | 62 | 0.0 | 0.0 | 0.00 | 0.00 | 0.00 | 66 | 1013.2 | |
| 20260505050319 | 62 | 0.0 | 0.0 | 0.00 | 0.00 | 0.00 | 65 | 1013.2 | |
| 20260505041317 | 63 | 180 | 1.0 | 5.0 | 0.00 | 0.00 | 0.00 | 61 | 1013.0 |
| 20260505040338 | 63 | 0.0 | 0.0 | 0.00 | 0.00 | 0.00 | 60 | 1013.1 | |
| 20260505035317 | 63 | 0.0 | 0.0 | 0.00 | 0.00 | 0.00 | 60 | 1013.0 | |
| 20260505034317 | 64 | 0.0 | 0.0 | 0.00 | 0.00 | 0.00 | 60 | 1013.0 | |
| 20260505033337 | 64 | 0.0 | 0.0 | 0.00 | 0.00 | 0.00 | 59 | 1012.9 | |
| 20260505032338 | 64 | 0.0 | 0.0 | 0.00 | 0.00 | 0.00 | 57 | 1012.9 | |
| 20260505031317 | 65 | 0.0 | 0.0 | 0.00 | 0.00 | 0.00 | 58 | 1013.0 | |
| 20260505030317 | 65 | 0.0 | 0.0 | 0.00 | 0.00 | 0.00 | 56 | 1013.0 | |
| 20260505025319 | 65 | 0.0 | 3.0 | 0.00 | 0.00 | 0.00 | 57 | 1013.0 | |
| 20260505024337 | 65 | 0.0 | 0.0 | 0.00 | 0.00 | 0.00 | 57 | 1013.0 | |
| 20260505023337 | 65 | 0.0 | 1.0 | 0.00 | 0.00 | 0.00 | 57 | 1013.1 | |
| 20260505022317 | 66 | 0.0 | 0.0 | 0.00 | 0.00 | 0.00 | 56 | 1012.9 | |
| 20260505021317 | 67 | 0.0 | 0.0 | 0.00 | 0.00 | 0.00 | 56 | 1012.8 | |
| 20260505020317 | 67 | 0.0 | 1.0 | 0.00 | 0.00 | 0.00 | 54 | 1012.8 | |
| 20260505015316 | 67 | 0.0 | 1.0 | 0.00 | 0.00 | 0.00 | 53 | 1012.7 | |
| 20260505014316 | 68 | 0.0 | 1.0 | 0.00 | 0.00 | 0.00 | 54 | 1012.6 | |
| 20260505013317 | 68 | 180 | 1.0 | 3.0 | 0.00 | 0.00 | 0.00 | 54 | 1012.6 |
| 20260505012316 | 68 | 0.0 | 0.0 | 0.00 | 0.00 | 0.00 | 53 | 1012.5 | |
| 20260505011317 | 69 | 0.0 | 0.0 | 0.00 | 0.00 | 0.00 | 52 | 1012.6 | |
| 20260505010337 | 69 | 0.0 | 1.0 | 0.00 | 0.00 | 0.00 | 52 | 1012.5 | |
| 20260505005316 | 70 | 0.0 | 2.0 | 0.00 | 0.00 | 0.00 | 51 | 1012.4 | |
| 20260505004316 | 70 | 0.0 | 0.0 | 0.00 | 0.00 | 0.00 | 50 | 1012.3 | |
| 20260505003317 | 71 | 0.0 | 0.0 | 0.00 | 0.00 | 0.00 | 48 | 1012.2 | |
| 20260505002316 | 72 | 0.0 | 0.0 | 0.00 | 0.00 | 0.00 | 47 | 1012.2 | |
| 20260505001317 | 73 | 180 | 2.0 | 4.0 | 0.00 | 0.00 | 0.00 | 46 | 1012.1 |
| 20260505000317 | 73 | 180 | 4.0 | 6.0 | 0.00 | 0.00 | 0.00 | 44 | 1012.1 |
| 20260504235316 | 74 | 180 | 4.0 | 7.0 | 0.00 | 0.00 | 0.00 | 44 | 1012.1 |
| 20260504234316 | 74 | 203 | 7.0 | 11.0 | 0.00 | 0.00 | 0.00 | 43 | 1012.1 |
| 20260504233316 | 75 | 180 | 2.0 | 4.0 | 0.00 | 0.00 | 0.00 | 43 | 1012.2 |
| 20260504232316 | 75 | 203 | 4.0 | 7.0 | 0.00 | 0.00 | 0.00 | 41 | 1012.1 |
| 20260504231316 | 75 | 180 | 2.0 | 5.0 | 0.00 | 0.00 | 0.00 | 41 | 1012.1 |
| 20260504230336 | 76 | 203 | 4.0 | 9.0 | 0.00 | 0.00 | 0.00 | 41 | 1011.9 |
| 20260504225318 | 76 | 248 | 3.0 | 8.0 | 0.00 | 0.00 | 0.00 | 43 | 1012.0 |
| 20260504224318 | 76 | 203 | 6.0 | 8.0 | 0.00 | 0.00 | 0.00 | 41 | 1012.2 |
| 20260504223318 | 76 | 225 | 5.0 | 9.0 | 0.00 | 0.00 | 0.00 | 39 | 1012.2 |
| 20260504222320 | 76 | 180 | 6.0 | 12.0 | 0.00 | 0.00 | 0.00 | 43 | 1012.2 |
| 20260504221318 | 76 | 203 | 5.0 | 8.0 | 0.00 | 0.00 | 0.00 | 42 | 1012.5 |
| 20260504220319 | 77 | 203 | 5.0 | 11.0 | 0.00 | 0.00 | 0.00 | 42 | 1012.4 |
| 20260504215318 | 77 | 203 | 5.0 | 7.0 | 0.00 | 0.00 | 0.00 | 45 | 1012.4 |
| 20260504214318 | 77 | 180 | 6.0 | 9.0 | 0.00 | 0.00 | 0.00 | 45 | 1012.3 |
| 20260504213319 | 76 | 203 | 4.0 | 8.0 | 0.00 | 0.00 | 0.00 | 45 | 1012.4 |
| 20260504212318 | 77 | 203 | 5.0 | 8.0 | 0.00 | 0.00 | 0.00 | 42 | 1012.5 |
| 20260504211317 | 77 | 203 | 7.0 | 12.0 | 0.00 | 0.00 | 0.00 | 43 | 1012.5 |
| 20260504210338 | 76 | 158 | 2.0 | 3.0 | 0.00 | 0.00 | 0.00 | 49 | 1012.6 |
| 20260504205317 | 76 | 225 | 5.0 | 10.0 | 0.00 | 0.00 | 0.00 | 48 | 1012.8 |
| 20260504204318 | 77 | 180 | 3.0 | 6.0 | 0.00 | 0.00 | 0.00 | 46 | 1012.9 |
| 20260504203317 | 77 | 180 | 4.0 | 8.0 | 0.00 | 0.00 | 0.00 | 46 | 1012.8 |
| 20260504202318 | 77 | 270 | 6.0 | 10.0 | 0.00 | 0.00 | 0.00 | 44 | 1013.0 |
| 20260504201318 | 76 | 203 | 7.0 | 11.0 | 0.00 | 0.00 | 0.00 | 46 | 1013.0 |
| 20260504200318 | 77 | 180 | 6.0 | 14.0 | 0.00 | 0.00 | 0.00 | 45 | 1013.3 |
| 20260504195317 | 77 | 158 | 5.0 | 7.0 | 0.00 | 0.00 | 0.00 | 46 | 1013.3 |
| 20260504194358 | 76 | 225 | 4.0 | 10.0 | 0.00 | 0.00 | 0.00 | 48 | 1013.4 |
| 20260504193318 | 76 | 203 | 5.0 | 11.0 | 0.00 | 0.00 | 0.00 | 49 | 1013.6 |
| 20260504192317 | 76 | 203 | 5.0 | 8.0 | 0.00 | 0.00 | 0.00 | 47 | 1013.7 |
| 20260504191317 | 77 | 180 | 6.0 | 8.0 | 0.00 | 0.00 | 0.00 | 47 | 1014.0 |
| 20260504190318 | 76 | 203 | 3.0 | 6.0 | 0.00 | 0.00 | 0.00 | 48 | 1014.1 |
| 20260504185317 | 76 | 203 | 5.0 | 7.0 | 0.00 | 0.00 | 0.00 | 49 | 1014.3 |
| 20260504184317 | 76 | 203 | 5.0 | 8.0 | 0.00 | 0.00 | 0.00 | 50 | 1014.4 |
| 20260504183317 | 75 | 270 | 2.0 | 4.0 | 0.00 | 0.00 | 0.00 | 50 | 1014.5 |
| 20260504182338 | 75 | 203 | 6.0 | 10.0 | 0.00 | 0.00 | 0.00 | 50 | 1014.5 |
| 20260504181317 | 75 | 180 | 2.0 | 7.0 | 0.00 | 0.00 | 0.00 | 51 | 1014.6 |
| 20260504180317 | 75 | 270 | 5.0 | 6.0 | 0.00 | 0.00 | 0.00 | 51 | 1014.6 |
| 20260504175317 | 75 | 225 | 4.0 | 8.0 | 0.00 | 0.00 | 0.00 | 50 | 1014.7 |
| 20260504174317 | 75 | 338 | 1.0 | 2.0 | 0.00 | 0.00 | 0.00 | 51 | 1014.9 |
| 20260504173318 | 74 | 180 | 8.0 | 13.0 | 0.00 | 0.00 | 0.00 | 51 | 1015.3 |